Everett, WA

1:31 PM PST on November 15, 2019 (GMT -0800)
Snohomish County

Weather History for KPAE - August, 2019

Change the Weather History Date:

Thursday, August 29, 2019

  Actual Average Record
Temperature  
Mean Temperature 70 °F -  
Max Temperature 81 °F 71 °F 91 °F (1996)
Min Temperature 60 °F 52 °F 40 °F (1965)
Cooling Degree Days 4    
Growing Degree Days 20 (Base 50)    
Moisture  
Dew Point 57 °F    
Average Humidity 71    
Maximum Humidity 90    
Minimum Humidity 47    
Precipitation  
Precipitation 0.00 in - - ()
Sea Level Pressure  
Sea Level Pressure 29.97 in    
Wind  
Wind Speed 6 mph (South)    
Max Wind Speed 17 mph    
Max Gust Speed 21 mph    
Visibility 10 miles    
Events Rain    
Averages and records for this station are not official NWS values.
T = Trace of Precipitation, MM = Missing Value Source: NWS Daily Summary

Daily Weather History Graph

Daily Weather History Graph

Search for Another Location

Airport or City:

Astronomy

Aug. 29, 2019 Rise Set
Actual Time 6:23 AM PDT 7:56 PM PDT
Civil Twilight 5:50 AM PDT 8:28 PM PDT
Nautical Twilight 5:11 AM PDT 9:07 PM PDT
Astronomical Twilight 4:28 AM PDT 9:50 PM PDT
Moon 5:05 AM PDT (8/29) 8:02 PM PDT (8/29)
Length of Visible Light 14h 37m
Length of Day
13h 33m
Waning Crescent, 1% of the Moon is Illuminated
Aug 29
Waning Crescent
Aug 30
New
Sep 5
First Quarter
Sep 13
Full
Sep 21
Last Quarter

Hourly Weather History & Observations

Time (PDT) Temp. Dew Point Humidity Pressure Visibility Wind Dir Wind Speed Gust Speed Precip Events Conditions
12:53 AM 64.0 °F 54.0 °F 70% 29.90 in 10.0 mi Calm Calm - N/A   Clear
1:53 AM 64.9 °F 54.0 °F 68% 29.89 in 10.0 mi Calm Calm - N/A   Clear
2:53 AM 63.0 °F 54.0 °F 72% 29.90 in 10.0 mi SW 3.5 mph - N/A   Clear
3:53 AM 62.1 °F 54.0 °F 75% 29.91 in 10.0 mi SSW 4.6 mph - N/A   Clear
4:53 AM 61.0 °F 55.0 °F 81% 29.92 in 10.0 mi SSW 3.5 mph - N/A   Clear
5:53 AM 60.1 °F 55.0 °F 83% 29.94 in 10.0 mi South 4.6 mph - N/A   Clear
6:53 AM 60.1 °F 57.0 °F 90% 29.96 in 10.0 mi South 6.9 mph - N/A   Clear
7:53 AM 62.1 °F 55.9 °F 80% 29.96 in 10.0 mi SSE 9.2 mph - N/A   Clear
8:53 AM 64.9 °F 57.0 °F 75% 29.97 in 10.0 mi South 12.7 mph - N/A   Clear
9:53 AM 64.9 °F 55.0 °F 70% 29.98 in 10.0 mi South 9.2 mph - N/A   Clear
10:53 AM 68.0 °F 55.9 °F 65% 29.98 in 10.0 mi South 8.1 mph - N/A   Clear
11:53 AM 72.0 °F 57.0 °F 59% 29.98 in 10.0 mi South 6.9 mph - N/A   Clear
12:53 PM 73.9 °F 57.9 °F 57% 29.97 in 10.0 mi SW 8.1 mph - N/A   Clear
1:53 PM 75.0 °F 57.0 °F 53% 29.97 in 10.0 mi SSE 12.7 mph - N/A   Mostly Cloudy
2:53 PM 77.0 °F 57.0 °F 50% 29.97 in 10.0 mi South 12.7 mph - N/A   Overcast
3:53 PM 79.0 °F 57.0 °F 47% 29.96 in 10.0 mi South 12.7 mph 20.7 mph N/A   Overcast
4:53 PM 75.9 °F 55.9 °F 50% 29.97 in 10.0 mi South 17.3 mph - N/A   Mostly Cloudy
5:53 PM 73.0 °F 57.9 °F 59% 29.99 in 10.0 mi South 13.8 mph - N/A   Overcast
6:53 PM 70.0 °F 55.0 °F 59% 29.99 in 10.0 mi South 15.0 mph - 0.00 in   Overcast
7:53 PM 66.9 °F 55.9 °F 68% 30.00 in 10.0 mi SSE 11.5 mph - N/A   Overcast
8:53 PM 66.0 °F 57.9 °F 75% 30.00 in 10.0 mi South 6.9 mph - 0.00 in Rain Light Rain
9:53 PM 64.9 °F 60.1 °F 84% 30.01 in 10.0 mi SSW 8.1 mph - 0.00 in Rain Light Rain
10:53 PM 64.0 °F 61.0 °F 90% 30.02 in 10.0 mi Variable 3.5 mph - 0.00 in   Clear
11:21 PM 64.0 °F 61.0 °F 90% 30.02 in 10.0 mi SE 6.9 mph - N/A   Scattered Clouds
11:39 PM 64.0 °F 61.0 °F 90% 30.03 in 10.0 mi SSE 5.8 mph - N/A   Mostly Cloudy
11:53 PM 64.0 °F 61.0 °F 90% 30.02 in 10.0 mi South 8.1 mph - N/A   Mostly Cloudy